Wind_Speed
19 19 20 19 19 19 19 18 18 17 18 18 17 18 18 17 17 16 16 17 17 18 19 19 19 20 21 20 21 20 21 21 22 22 23 24 24 24 24 23 23 23 23 22
20 20 20 19 19 18 18 17 17 17 18 18 18 17 17 17 17 17 17 17 17 18 18 18 18 18 18 19 18 18 19 19 20 20 21 22 22 22 22 22 22 22 22 22
20 19 19 19 18 18 17 17 17 17 17 17 17 16 16 16 17 17 18 17 17 18 17 17 17 17 16 16 17 17 17 18 18 18 19 19 20 20 20 21 21 21 22 21
19 19 19 18 18 17 17 17 17 17 16 16 17 17 17 16 17 17 17 17 17 16 15 15 15 15 15 15 15 15 16 17 17 17 17 17 18 18 19 19 20 19 19 20
18 19 19 18 17 17 17 16 16 16 16 16 16 17 16 16 16 16 16 16 15 14 14 14 14 14 14 14 14 15 16 16 16 16 16 16 17 16 17 17 17 17 17 17
19 19 19 18 16 16 16 15 15 15 15 15 15 16 16 16 15 15 14 14 14 14 13 13 13 13 13 13 13 13 14 14 14 13 14 14 15 15 14 14 14 14 14 14
18 18 18 16 15 15 15 15 14 15 15 16 16 16 16 15 14 13 13 12 12 12 12 12 12 12 12 12 12 12 12 12 12 12 12 12 13 13 12 12 12 13 12 12
18 17 16 15 14 14 14 14 14 14 15 15 16 15 14 13 12 11 11 11 11 11 11 11 11 10 10 9 9 9 9 10 10 10 11 11 11 11 11 10 10 10 10 11
17 16 15 14 14 14 14 13 13 13 14 15 15 13 12 11 10 10 10 10 10 10 9 9 9 9 8 7 7 8 8 8 9 9 10 10 10 10 10 9 9 9 9 9
17 15 14 13 13 13 13 12 12 12 13 13 12 11 10 9 10 10 9 9 9 8 8 8 8 9 7 7 7 7 7 7 7 7 8 8 8 8 8 8 8 7 7 7
17 15 14 13 12 12 12 12 11 12 11 11 10 9 8 8 9 9 9 8 8 7 7 7 8 7 6 6 6 6 6 7 7 7 8 8 8 8 7 7 7 7 6 6
16 15 13 12 11 10 10 10 10 10 9 9 8 7 7 7 7 7 6 6 5 5 6 6 5 5 5 6 6 6 6 6 6 7 7 7 7 7 7 7 6 6 5 4
17 15 14 12 11 10 9 9 9 8 7 7 7 6 5 5 5 4 4 4 4 4 5 5 4 4 5 5 6 6 6 6 6 7 7 7 7 7 7 7 7 7 5 4
17 16 13 12 10 9 8 8 7 7 7 6 5 4 4 4 3 3 2 2 2 3 4 4 4 4 5 5 6 6 6 6 7 7 7 7 7 7 7 7 7 7 6 5
17 15 13 11 10 8 8 7 6 6 5 4 3 3 2 2 2 1 1 2 2 3 4 4 4 5 5 5 5 6 7 7 6 6 6 7 7 7 7 7 7 7 7 6
16 13 11 10 9 8 7 6 5 5 4 3 2 1 1 1 1 1 1 1 2 3 3 3 4 5 5 5 6 6 6 6 6 6 6 7 7 7 7 7 7 7 7 7
15 13 11 10 9 7 6 5 4 3 2 1 1 1 1 1 1 1 1 2 2 2 3 3 3 4 4 5 5 6 6 7 6 6 6 6 7 7 7 7 7 8 7 7
15 13 11 10 8 7 5 4 4 3 2 1 1 1 1 1 1 1 1 2 2 2 3 3 3 4 4 5 5 6 6 7 7 7 7 7 7 8 8 8 8 8 7 7
15 13 12 10 8 7 6 5 4 3 2 2 2 2 2 1 1 1 1 1 2 2 3 3 3 4 4 5 5 5 6 7 7 7 7 7 8 8 9 9 8 8 8 8
16 14 13 12 10 8 7 6 5 4 3 3 2 2 2 3 2 2 2 2 2 3 3 3 4 4 5 5 5 5 6 7 7 7 7 7 8 8 8 8 8 8 8 9
16 15 14 13 11 10 8 7 6 5 4 4 3 3 3 4 3 3 3 3 3 3 3 3 4 4 5 6 6 6 6 7 7 7 7 8 8 9 8 9 9 9 9 10
17 16 14 13 12 11 10 9 8 6 5 5 4 3 2 2 3 3 3 3 4 4 4 5 5 5 5 6 6 7 7 7 8 8 8 8 8 9 9 10 10 10 11 11
17 16 15 13 13 12 12 10 9 8 6 6 4 3 2 2 2 2 3 3 3 4 4 5 5 6 6 6 7 7 7 8 8 8 9 9 10 10 10 11 11 11 12 12
18 17 15 14 13 12 12 11 10 8 7 6 5 3 3 2 2 2 2 3 3 4 4 5 6 6 6 7 7 8 8 8 9 9 10 10 11 11 11 12 12 12 13 13
19 18 16 14 14 13 12 11 10 8 7 6 5 4 3 2 1 1 2 3 3 4 4 5 6 6 6 7 8 8 9 9 10 10 11 11 12 12 12 12 13 13 13 14
20 18 16 15 14 13 12 11 10 9 7 6 5 4 3 2 1 1 1 2 3 3 4 5 6 7 7 8 9 9 10 11 12 12 13 13 13 14 14 14 15 15 16 16
20 18 16 15 15 14 13 11 10 9 8 6 5 4 3 2 1 1 1 2 3 4 5 6 7 8 8 9 10 11 12 13 13 14 14 15 15 15 15 16 16 17 18 18
Wind_Direction
294 293 294 294 294 294 293 291 288 289 291 296 296 295 294 294 293 293 294 293 292 289 287 285 282 282 284 286 284 282 284 284 283 283 279 277 278 277 278 278 279 280 279 278
295 295 296 295 293 292 291 292 290 289 290 296 298 296 297 296 296 296 297 296 295 293 292 290 289 288 288 288 288 285 284 284 286 286 283 282 281 281 280 280 281 281 279 277
294 295 296 296 295 293 291 290 290 290 291 294 296 296 296 297 297 298 297 295 295 295 295 295 295 293 289 289 291 290 286 286 289 290 286 283 284 283 283 282 281 280 279 277
294 295 296 299 296 292 290 291 291 290 291 291 292 293 294 296 298 298 298 297 297 296 295 296 298 299 298 298 297 294 294 292 292 293 292 290 289 287 285 283 281 281 280 277
293 294 297 298 297 294 293 291 291 292 293 291 291 292 294 297 299 302 300 299 298 297 297 297 299 302 301 301 299 297 297 297 296 296 295 296 295 293 291 288 285 284 282 279
289 290 294 298 296 296 296 293 291 293 296 295 295 293 294 296 296 300 301 300 299 298 297 298 300 302 301 302 302 301 299 298 300 299 298 299 299 297 295 293 289 287 285 280
284 287 293 296 296 297 295 294 292 295 297 297 294 293 293 293 294 298 302 302 302 302 300 302 305 307 306 306 303 300 301 302 301 301 301 301 303 303 300 297 293 290 286 284
279 283 290 293 294 294 294 291 292 294 296 296 295 294 292 292 295 298 303 305 307 311 309 308 310 311 310 310 309 305 303 303 305 308 309 309 308 310 311 307 300 296 294 292
273 278 283 289 291 292 290 291 296 296 298 300 297 295 293 293 296 298 301 304 306 311 312 314 319 318 316 318 320 321 317 313 311 313 316 316 318 319 317 315 312 307 303 302
268 273 278 284 288 292 292 292 295 297 300 302 299 297 293 291 292 297 301 305 307 309 313 319 323 325 328 328 327 328 326 325 323 327 329 329 327 325 324 322 321 318 314 310
264 268 272 280 284 287 292 294 293 296 301 305 302 297 293 291 291 292 296 300 306 310 316 325 328 330 338 340 337 338 338 341 342 342 341 340 341 341 336 331 328 327 325 319
257 260 264 270 275 280 286 291 294 297 302 309 307 298 295 297 295 294 295 299 306 316 321 331 335 342 344 344 353 357 356 351 350 355 1 3 2 358 355 351 347 344 341 334
250 253 258 265 269 274 279 285 291 295 302 309 311 307 300 298 299 298 297 303 309 323 329 338 340 344 351 356 359 360 359 354 357 3 8 11 11 9 8 8 9 7 358 350
244 246 251 258 263 268 272 281 288 293 301 306 306 309 305 297 294 300 315 334 342 349 352 354 356 359 358 357 359 2 3 1 1 359 2 10 12 13 13 13 13 12 12 10
239 241 244 249 255 261 266 272 281 292 302 302 304 310 310 299 298 311 347 359 7 11 8 360 3 4 2 3 8 9 7 9 7 7 11 14 16 16 16 13 10 10 9 8
233 234 238 243 248 255 259 260 269 282 289 292 288 301 305 300 295 307 332 332 337 357 5 3 6 6 7 13 14 12 12 12 13 12 5 6 10 8 8 8 8 8 11 14
224 225 229 234 238 244 243 242 249 260 272 274 274 332 4 353 2 340 330 341 344 1 10 20 16 13 15 17 17 19 17 16 15 13 12 11 11 11 10 11 13 12 10 11
217 219 221 224 230 226 226 224 226 230 232 214 162 99 68 41 37 21 7 2 10 7 8 16 15 15 19 19 15 15 16 17 14 11 10 10 10 9 9 7 6 7 9 8
211 212 213 213 212 213 212 208 203 196 172 139 123 108 100 88 63 45 25 24 23 22 22 25 22 20 20 17 12 10 10 7 5 2 360 360 360 358 357 358 359 0 1 0
208 208 207 206 206 206 204 193 189 188 176 150 127 105 104 96 87 76 62 44 40 41 36 36 33 28 25 21 14 8 5 5 4 0 357 356 355 354 355 355 355 354 353 350
204 202 201 202 201 199 197 193 189 186 179 165 147 116 97 91 84 69 53 42 43 39 35 36 31 30 27 20 15 11 8 5 2 358 358 357 356 356 355 353 351 349 345 342
198 196 196 197 197 194 191 189 188 187 181 175 169 152 120 95 78 60 46 48 48 39 36 32 27 23 17 12 10 10 10 6 2 358 357 355 354 353 352 349 346 343 340 339
192 192 193 193 192 189 187 186 185 187 184 179 177 171 150 118 87 62 51 51 44 36 35 31 27 22 17 12 7 4 3 2 359 357 355 354 352 348 344 341 339 338 336 333
188 187 187 186 184 182 181 181 181 181 178 174 172 169 161 146 118 83 65 51 39 30 27 21 15 11 7 6 5 3 0 358 356 352 349 347 345 344 342 340 337 335 333 332
186 184 184 185 185 183 181 180 179 176 174 173 172 170 162 150 126 88 70 55 40 33 26 18 12 4 358 355 355 354 352 350 346 343 342 341 339 337 335 334 332 332 331 329
184 184 184 185 186 185 183 180 179 178 177 179 181 180 174 167 144 89 57 33 20 12 6 1 358 355 353 350 347 346 344 343 341 339 337 335 332 331 330 328 327 327 326 325
183 183 183 183 184 184 184 184 184 182 184 190 194 197 202 211 226 261 319 338 342 344 345 345 345 345 344 342 341 340 338 336 335 334 333 332 331 330 328 326 325 325 325 324
Height
5810 5808 5806 5804 5803 5801 5799 5797 5796 5795 5793 5791 5789 5786 5784 5783 5781 5779 5778 5776 5774 5771 5770 5768 5766 5765 5763 5761 5758 5756 5755 5753 5752 5751 5749 5748 5747 5745 5744 5744 5742 5741 5740 5739
5805 5803 5801 5799 5797 5796 5794 5792 5791 5790 5788 5786 5784 5782 5780 5778 5777 5775 5773 5771 5769 5767 5765 5762 5761 5759 5757 5755 5753 5751 5749 5748 5747 5745 5743 5742 5741 5739 5738 5737 5736 5735 5734 5733
5800 5798 5796 5795 5793 5791 5789 5788 5786 5785 5784 5781 5780 5778 5776 5774 5772 5770 5768 5766 5764 5762 5760 5758 5756 5754 5752 5750 5748 5746 5744 5743 5742 5740 5738 5736 5735 5733 5732 5731 5730 5728 5728 5727
5795 5794 5791 5793 5788 5786 5784 5783 5781 5780 5778 5777 5775 5773 5772 5770 5768 5765 5763 5761 5759 5757 5755 5753 5751 5750 5748 5746 5744 5742 5740 5738 5737 5735 5733 5731 5729 5728 5726 5725 5723 5722 5721 5721
5790 5788 5786 5786 5784 5781 5779 5778 5777 5775 5773 5772 5770 5769 5767 5765 5763 5761 5759 5757 5755 5753 5751 5749 5747 5746 5744 5742 5740 5738 5736 5734 5732 5731 5729 5727 5725 5723 5721 5719 5718 5717 5716 5715
5785 5783 5782 5782 5779 5776 5775 5773 5772 5770 5768 5767 5766 5764 5763 5761 5759 5757 5755 5753 5751 5749 5748 5746 5744 5742 5740 5738 5736 5734 5732 5730 5729 5727 5725 5723 5721 5719 5717 5715 5714 5712 5711 5710
5780 5778 5777 5777 5774 5772 5772 5770 5767 5765 5764 5762 5761 5760 5758 5756 5755 5753 5751 5749 5747 5746 5744 5742 5740 5738 5736 5734 5732 5731 5729 5727 5725 5724 5722 5720 5718 5715 5713 5712 5710 5709 5708 5707
5775 5774 5775 5772 5769 5768 5767 5764 5762 5761 5759 5758 5756 5754 5753 5751 5750 5749 5748 5746 5744 5743 5741 5739 5737 5735 5733 5731 5729 5727 5726 5724 5723 5721 5719 5717 5715 5713 5711 5709 5708 5706 5705 5704
5771 5771 5769 5767 5766 5764 5762 5760 5758 5757 5755 5753 5751 5750 5748 5747 5747 5746 5745 5743 5742 5740 5738 5737 5734 5732 5730 5729 5727 5725 5724 5722 5721 5719 5717 5715 5713 5711 5709 5707 5706 5704 5703 5702
5765 5765 5764 5763 5762 5760 5759 5757 5755 5753 5751 5749 5748 5746 5745 5744 5743 5742 5741 5740 5739 5737 5736 5735 5733 5731 5728 5727 5725 5724 5722 5721 5719 5717 5716 5714 5712 5710 5708 5706 5704 5703 5701 5700
5760 5761 5760 5759 5758 5757 5755 5753 5752 5750 5748 5746 5744 5743 5742 5741 5740 5739 5738 5737 5736 5735 5734 5733 5731 5729 5728 5726 5724 5723 5721 5720 5718 5716 5714 5713 5711 5709 5707 5705 5703 5702 5700 5699
5756 5756 5755 5755 5754 5753 5752 5750 5749 5747 5745 5744 5742 5740 5739 5738 5737 5737 5736 5735 5734 5734 5733 5731 5730 5728 5727 5725 5724 5722 5721 5719 5718 5716 5714 5712 5711 5709 5707 5705 5703 5701 5700 5699
5750 5750 5751 5751 5750 5749 5748 5747 5746 5745 5743 5741 5740 5738 5737 5736 5736 5735 5734 5734 5733 5732 5731 5730 5729 5727 5726 5725 5723 5722 5720 5719 5717 5716 5714 5713 5711 5709 5707 5705 5704 5702 5700 5699
5744 5745 5746 5747 5746 5746 5745 5744 5743 5742 5741 5739 5738 5737 5736 5735 5734 5734 5733 5733 5732 5731 5730 5729 5728 5727 5726 5725 5723 5722 5720 5719 5718 5716 5715 5713 5711 5709 5708 5706 5704 5702 5700 5699
5739 5741 5742 5743 5743 5743 5742 5742 5741 5740 5739 5738 5736 5735 5735 5734 5733 5733 5733 5732 5732 5731 5730 5729 5728 5727 5726 5725 5723 5722 5721 5719 5718 5717 5715 5714 5712 5710 5709 5707 5705 5703 5701 5700
5734 5736 5738 5739 5740 5740 5739 5739 5739 5738 5737 5736 5735 5735 5734 5733 5733 5732 5732 5732 5731 5731 5730 5729 5728 5727 5726 5725 5724 5723 5721 5720 5719 5717 5716 5714 5713 5711 5709 5708 5706 5704 5702 5701
5730 5732 5734 5735 5736 5737 5737 5737 5737 5736 5736 5735 5734 5734 5733 5733 5733 5732 5732 5732 5731 5730 5730 5729 5728 5727 5726 5725 5724 5723 5722 5721 5719 5718 5716 5715 5713 5712 5710 5708 5706 5704 5703 5701
5726 5728 5731 5732 5733 5734 5735 5735 5735 5735 5735 5734 5734 5734 5733 5733 5733 5732 5732 5731 5731 5730 5730 5729 5728 5728 5727 5726 5725 5724 5723 5721 5720 5718 5717 5715 5714 5712 5710 5708 5707 5705 5704 5702
5721 5724 5727 5729 5730 5731 5732 5733 5733 5734 5734 5734 5734 5734 5733 5733 5733 5733 5732 5731 5731 5730 5730 5729 5729 5728 5727 5726 5725 5724 5723 5722 5720 5719 5717 5716 5714 5712 5710 5709 5707 5705 5704 5702
5718 5721 5723 5725 5727 5729 5730 5731 5732 5733 5733 5733 5734 5734 5734 5733 5733 5733 5732 5732 5731 5731 5731 5730 5729 5728 5728 5726 5725 5724 5723 5722 5720 5719 5717 5716 5714 5712 5710 5709 5707 5706 5704 5702
5714 5717 5720 5722 5725 5727 5729 5730 5731 5732 5733 5733 5734 5734 5734 5734 5734 5734 5733 5733 5732 5731 5731 5730 5729 5729 5728 5727 5726 5724 5723 5722 5720 5719 5717 5715 5714 5712 5710 5709 5707 5705 5703 5702
5711 5714 5717 5720 5722 5725 5727 5729 5730 5731 5732 5733 5733 5734 5734 5734 5734 5734 5733 5733 5733 5732 5731 5730 5730 5729 5728 5727 5726 5724 5723 5722 5720 5719 5717 5715 5714 5712 5710 5708 5706 5704 5703 5701
5708 5711 5715 5717 5720 5723 5725 5727 5729 5730 5731 5732 5733 5733 5734 5734 5734 5734 5734 5733 5733 5732 5731 5731 5730 5729 5728 5727 5726 5724 5723 5721 5720 5718 5717 5715 5713 5711 5709 5707 5705 5703 5701 5699
5706 5709 5713 5716 5718 5721 5724 5726 5728 5729 5730 5731 5732 5733 5734 5734 5734 5734 5734 5733 5733 5732 5732 5731 5730 5729 5728 5727 5726 5724 5723 5721 5720 5718 5716 5714 5712 5710 5708 5706 5704 5702 5700 5698
5704 5708 5711 5714 5717 5720 5722 5724 5726 5728 5729 5731 5732 5732 5733 5733 5734 5734 5733 5733 5733 5732 5732 5731 5730 5729 5728 5727 5725 5724 5722 5721 5719 5717 5715 5713 5711 5709 5706 5704 5702 5700 5698 5695
5703 5706 5710 5713 5716 5719 5721 5723 5725 5727 5729 5730 5731 5732 5732 5733 5733 5733 5733 5733 5732 5732 5732 5731 5730 5729 5727 5726 5725 5723 5721 5720 5718 5716 5713 5711 5709 5706 5704 5702 5700 5697 5695 5692
5701 5705 5708 5712 5715 5718 5720 5722 5725 5726 5728 5729 5730 5731 5731 5732 5732 5732 5732 5732 5732 5732 5731 5730 5729 5728 5726 5725 5724 5722 5720 5718 5716 5714 5711 5709 5706 5704 5701 5699 5696 5694 5691 5688